When you browse on this site, cookies collect data to enhance your experience and personalize the content and advertising you see.
Visit our Privacy Policy to learn more. By continuing to use the site, you agree to this use of cookies and data.
  • In Schweiz
  • Länderverzeichnis
  • Für 7 Tage
  • Wassertemperatur
  • Wetterkarte
  • Widgets
  • user-avatar
    Anmelden

    Stündliche Wetter Grenoble

    Heute, 21 November, Donnerstag

    Zeit Temperatur Niederschläge Wind Luftdruck Luftfeuchtigkeit
    00:00 +7°C° 0 mm 1 m/S 736 mmHg 91%
    01:00 +6°C° 0 mm 2 m/S 736 mmHg 91%
    02:00 +6°C° 0 mm 2 m/S 736 mmHg 91%
    03:00 +6°C° 0 mm 2 m/S 735 mmHg 91%
    04:00 +6°C° 0 mm 2 m/S 735 mmHg 90%
    05:00 +5°C° 0 mm 2 m/S 735 mmHg 89%
    06:00 +5°C° 0 mm 2 m/S 735 mmHg 86%
    07:00 +6°C° 0 mm 2 m/S 735 mmHg 85%
    08:00 +8°C° 0 mm 1 m/S 735 mmHg 84%
    09:00 +9°C° 0 mm 1 m/S 735 mmHg 83%
    10:00 +10°C° 0 mm 1 m/S 735 mmHg 82%
    11:00 +11°C° 0 mm 1 m/S 735 mmHg 82%
    12:00 +12°C° 0 mm 1 m/S 735 mmHg 81%
    13:00 +12°C° 0 mm 1 m/S 734 mmHg 84%
    14:00 +11°C° 0 mm 1 m/S 734 mmHg 87%
    15:00 +10°C° 0 mm 1 m/S 734 mmHg 90%
    16:00 +10°C° 0.1 mm 1 m/S 734 mmHg 91%
    17:00 +9°C° 0.1 mm 1 m/S 735 mmHg 91%
    18:00 +9°C° 0.1 mm 1 m/S 735 mmHg 92%
    19:00 +9°C° 0.3 mm 1 m/S 735 mmHg 93%
    20:00 +8°C° 0.3 mm 2 m/S 735 mmHg 93%
    21:00 +8°C° 0.3 mm 2 m/S 735 mmHg 93%
    22:00 +9°C° 0.2 mm 1 m/S 735 mmHg 94%
    23:00 +8°C° 0.2 mm 1 m/S 735 mmHg 94%

    Morgen, 22 November, Freitag

    Zeit Temperatur Niederschläge Wind Luftdruck Luftfeuchtigkeit
    00:00 +8°C° 0.2 mm 1 m/S 736 mmHg 94%
    01:00 +8°C° 0.1 mm 1 m/S 735 mmHg 93%
    02:00 +8°C° 0.1 mm 1 m/S 735 mmHg 93%
    03:00 +8°C° 0.1 mm 1 m/S 735 mmHg 93%
    04:00 +8°C° 0 mm 1 m/S 735 mmHg 92%
    05:00 +6°C° 0 mm 2 m/S 735 mmHg 90%
    06:00 +6°C° 0 mm 2 m/S 735 mmHg 89%
    07:00 +7°C° 0 mm 2 m/S 735 mmHg 88%
    08:00 +8°C° 0 mm 2 m/S 734 mmHg 86%
    09:00 +9°C° 0 mm 2 m/S 734 mmHg 84%
    10:00 +10°C° 0 mm 2 m/S 734 mmHg 81%
    11:00 +13°C° 0 mm 2 m/S 733 mmHg 78%
    12:00 +14°C° 0 mm 2 m/S 733 mmHg 75%
    13:00 +13°C° 0 mm 2 m/S 732 mmHg 77%
    14:00 +13°C° 0 mm 2 m/S 732 mmHg 79%
    15:00 +12°C° 0 mm 2 m/S 731 mmHg 82%
    16:00 +10°C° 0 mm 3 m/S 731 mmHg 82%
    17:00 +9°C° 0 mm 3 m/S 731 mmHg 82%
    18:00 +8°C° 0 mm 3 m/S 731 mmHg 82%
    19:00 +8°C° 0.1 mm 3 m/S 730 mmHg 82%
    20:00 +8°C° 0.1 mm 3 m/S 730 mmHg 82%
    21:00 +8°C° 0.1 mm 3 m/S 730 mmHg 81%
    22:00 +8°C° 0.1 mm 3 m/S 729 mmHg 82%
    23:00 +8°C° 0.1 mm 3 m/S 729 mmHg 82%

    übermorgen, 23 November, Samstag

    Zeit Temperatur Niederschläge Wind Luftdruck Luftfeuchtigkeit
    00:00 +8°C° 0.1 mm 3 m/S 728 mmHg 83%
    01:00 +8°C° 0.2 mm 3 m/S 727 mmHg 83%
    02:00 +8°C° 0.2 mm 3 m/S 727 mmHg 84%
    03:00 +8°C° 0.2 mm 3 m/S 726 mmHg 85%
    04:00 +8°C° 0.1 mm 3 m/S 726 mmHg 85%
    05:00 +8°C° 0.1 mm 3 m/S 726 mmHg 85%
    06:00 +8°C° 0.1 mm 3 m/S 725 mmHg 85%
    07:00 +8°C° 0.2 mm 3 m/S 725 mmHg 84%
    08:00 +9°C° 0.2 mm 3 m/S 725 mmHg 83%
    09:00 +10°C° 0.2 mm 2 m/S 725 mmHg 83%
    10:00 +10°C° 0.4 mm 2 m/S 725 mmHg 83%
    11:00 +12°C° 0.4 mm 2 m/S 725 mmHg 84%
    12:00 +13°C° 0.4 mm 2 m/S 725 mmHg 85%
    13:00 +12°C° 0.2 mm 2 m/S 726 mmHg 87%
    14:00 +12°C° 0.2 mm 1 m/S 726 mmHg 89%
    15:00 +11°C° 0.2 mm 1 m/S 726 mmHg 91%
    16:00 +11°C° 0.8 mm 1 m/S 727 mmHg 92%
    17:00 +10°C° 0.8 mm 1 m/S 727 mmHg 94%
    18:00 +10°C° 0.8 mm 1 m/S 728 mmHg 95%
    19:00 +10°C° 0.3 mm 1 m/S 728 mmHg 94%
    20:00 +10°C° 0.3 mm 1 m/S 728 mmHg 94%
    21:00 +10°C° 0.3 mm 1 m/S 729 mmHg 93%
    22:00 +9°C° 0.2 mm 0 m/S 729 mmHg 93%
    23:00 +9°C° 0.2 mm 0 m/S 729 mmHg 93%

    24 November, Sonntag

    Zeit Temperatur Niederschläge Wind Luftdruck Luftfeuchtigkeit
    00:00 +9°C° 0.2 mm 0 m/S 730 mmHg 93%
    01:00 +10°C° 0.2 mm 1 m/S 730 mmHg 94%
    02:00 +10°C° 0.2 mm 1 m/S 731 mmHg 94%
    03:00 +10°C° 0.2 mm 1 m/S 731 mmHg 95%
    04:00 +9°C° 0.2 mm 1 m/S 732 mmHg 96%
    05:00 +9°C° 0.2 mm 1 m/S 732 mmHg 96%
    06:00 +9°C° 0.2 mm 1 m/S 733 mmHg 97%
    07:00 +9°C° 0 mm 1 m/S 734 mmHg 97%
    08:00 +8°C° 0 mm 2 m/S 734 mmHg 97%
    09:00 +9°C° 0 mm 2 m/S 735 mmHg 97%
    10:00 +9°C° 0 mm 2 m/S 735 mmHg 96%
    11:00 +10°C° 0 mm 2 m/S 736 mmHg 95%
    12:00 +10°C° 0 mm 2 m/S 736 mmHg 94%
    13:00 +10°C° 0 mm 2 m/S 736 mmHg 94%
    14:00 +10°C° 0 mm 2 m/S 737 mmHg 95%
    15:00 +10°C° 0 mm 1 m/S 737 mmHg 96%
    16:00 +10°C° 0 mm 1 m/S 737 mmHg 96%
    17:00 +10°C° 0 mm 1 m/S 738 mmHg 95%
    18:00 +9°C° 0 mm 1 m/S 738 mmHg 95%
    19:00 +9°C° 0 mm 1 m/S 739 mmHg 95%
    20:00 +9°C° 0 mm 1 m/S 739 mmHg 94%
    21:00 +8°C° 0 mm 1 m/S 739 mmHg 94%
    22:00 +8°C° 0 mm 1 m/S 739 mmHg 93%
    23:00 +8°C° 0 mm 1 m/S 740 mmHg 92%

    25 November, Montag

    Zeit Temperatur Niederschläge Wind Luftdruck Luftfeuchtigkeit
    00:00 +8°C° 0 mm 1 m/S 740 mmHg 91%
    01:00 +8°C° 0 mm 1 m/S 740 mmHg 89%
    02:00 +8°C° 0 mm 1 m/S 739 mmHg 87%
    03:00 +8°C° 0 mm 1 m/S 739 mmHg 86%
    04:00 +8°C° 0 mm 1 m/S 739 mmHg 84%
    05:00 +8°C° 0 mm 1 m/S 739 mmHg 83%
    06:00 +8°C° 0 mm 1 m/S 739 mmHg 82%
    07:00 +9°C° 0 mm 1 m/S 740 mmHg 81%
    08:00 +10°C° 0 mm 1 m/S 740 mmHg 79%
    09:00 +12°C° 0 mm 1 m/S 740 mmHg 78%
    10:00 +12°C° 0 mm 0 m/S 740 mmHg 77%
    11:00 +13°C° 0 mm 0 m/S 739 mmHg 77%
    12:00 +14°C° 0 mm 0 m/S 739 mmHg 76%
    13:00 +14°C° 0 mm 0 m/S 739 mmHg 78%
    14:00 +13°C° 0 mm 0 m/S 739 mmHg 79%
    15:00 +13°C° 0 mm 0 m/S 739 mmHg 81%
    16:00 +12°C° 0 mm 0 m/S 739 mmHg 78%
    17:00 +12°C° 0 mm 1 m/S 739 mmHg 76%
    18:00 +12°C° 0 mm 1 m/S 740 mmHg 74%
    19:00 +11°C° 0 mm 1 m/S 740 mmHg 73%
    20:00 +11°C° 0 mm 1 m/S 740 mmHg 72%
    21:00 +11°C° 0 mm 1 m/S 740 mmHg 72%
    22:00 +11°C° 0 mm 1 m/S 740 mmHg 73%
    23:00 +11°C° 0 mm 1 m/S 740 mmHg 74%

    26 November, Dienstag

    Zeit Temperatur Niederschläge Wind Luftdruck Luftfeuchtigkeit
    00:00 +12°C° 0 mm 1 m/S 740 mmHg 75%
    01:00 +12°C° 0 mm 1 m/S 739 mmHg 76%
    02:00 +12°C° 0 mm 1 m/S 739 mmHg 77%
    03:00 +12°C° 0 mm 1 m/S 739 mmHg 78%
    04:00 +11°C° 0 mm 1 m/S 739 mmHg 79%
    05:00 +11°C° 0 mm 1 m/S 739 mmHg 81%
    06:00 +11°C° 0 mm 1 m/S 739 mmHg 83%
    07:00 +12°C° 0 mm 1 m/S 739 mmHg 82%
    08:00 +13°C° 0 mm 1 m/S 739 mmHg 82%
    09:00 +14°C° 0 mm 1 m/S 739 mmHg 81%
    10:00 +15°C° 0 mm 1 m/S 739 mmHg 79%
    11:00 +16°C° 0 mm 1 m/S 739 mmHg 78%
    12:00 +18°C° 0 mm 1 m/S 738 mmHg 76%
    13:00 +18°C° 0 mm 1 m/S 738 mmHg 78%
    14:00 +16°C° 0 mm 1 m/S 738 mmHg 81%
    15:00 +16°C° 0 mm 1 m/S 738 mmHg 83%
    16:00 +15°C° 0 mm 1 m/S 738 mmHg 83%
    17:00 +15°C° 0 mm 1 m/S 738 mmHg 83%
    18:00 +14°C° 0 mm 2 m/S 738 mmHg 82%
    19:00 +14°C° 0 mm 2 m/S 738 mmHg 82%
    20:00 +13°C° 0 mm 2 m/S 738 mmHg 82%
    21:00 +13°C° 0 mm 2 m/S 738 mmHg 82%
    22:00 +13°C° 0 mm 2 m/S 738 mmHg 82%
    23:00 +13°C° 0 mm 2 m/S 737 mmHg 83%
    Mehr zeigen